Aberdeen / Amory, MS

5:45 PM CST on November 18, 2019 (GMT -0600)
Aberdeen / Amory

Weather History for KM40 - October, 2019

Change the Weather History Date:

Sunday, October 13, 2019

  Actual Average (WUND) Record (WUND)
Temperature  
Mean Temperature 49 °F -  
Max Temperature 57 °F - - (-1)
Min Temperature 41 °F - - (-1)
Degree Days  
Heating Degree Days 16    
Moisture  
Dew Point 34 °F    
Average Humidity 54    
Maximum Humidity 58    
Minimum Humidity 51    
Precipitation  
Precipitation 0.00 in - - ()
Sea Level Pressure  
Sea Level Pressure 30.09 in    
Wind  
Wind Speed 1 mph ()    
Max Wind Speed 7 mph    
Max Gust Speed -    
Visibility 9.2 miles    
Events      
Averages and records for this station are not official NWS values.
T = Trace of Precipitation, MM = Missing Value Source: Averaged Metar Reports

Daily Weather History Graph

Daily Weather History Graph

Search for Another Location

Airport or City:

Astronomy

Oct. 13, 2019 Rise Set
Actual Time 6:57 AM CDT 6:22 PM CDT
Civil Twilight 6:32 AM CDT 6:47 PM CDT
Nautical Twilight 6:03 AM CDT 7:16 PM CDT
Astronomical Twilight 5:34 AM CDT 7:45 PM CDT
Moon 6:42 PM CDT (10/13) 6:35 AM CDT (10/13)
Length of Visible Light 12h 15m
Length of Day
11h 25m
Full, 100% of the Moon is Illuminated
Oct 13
Full
Oct 13
Full
Oct 21
Last Quarter
Oct 27
New
Nov 4
First Quarter

Hourly Weather History & Observations

Time (CDT) Temp. Windchill Dew Point Humidity Pressure Visibility Wind Dir Wind Speed Gust Speed Precip Events Conditions
12:35 AM 42.8 °F - 26.6 °F 53% 30.07 in 10.0 mi Calm Calm - N/A   Clear
12:55 AM 42.8 °F - 28.4 °F 57% 30.07 in 10.0 mi Calm Calm - N/A   Clear
1:15 AM 42.8 °F - 28.4 °F 57% 30.07 in 10.0 mi Calm Calm - N/A   Clear
1:35 AM 44.6 °F - 28.4 °F 53% 30.06 in 10.0 mi Calm Calm - N/A   Clear
1:55 AM 44.6 °F 43.1 °F 28.4 °F 53% 30.06 in 5.0 mi North 3.5 mph - N/A   Haze
2:35 AM 42.8 °F - 26.6 °F 53% 30.06 in 9.0 mi Calm Calm - N/A   Clear
2:55 AM 42.8 °F - 26.6 °F 53% 30.06 in 9.0 mi Calm Calm - N/A   Clear
3:15 AM 42.8 °F - 28.4 °F 57% 30.06 in 7.0 mi Calm Calm - N/A   Mostly Cloudy
3:35 AM 44.6 °F - 28.4 °F 53% 30.06 in 10.0 mi Calm Calm - N/A   Overcast
3:55 AM 44.6 °F - 28.4 °F 53% 30.06 in 10.0 mi Calm Calm - N/A   Overcast
4:15 AM 44.6 °F - 28.4 °F 53% 30.07 in 9.0 mi Calm Calm - N/A   Mostly Cloudy
4:35 AM 44.6 °F - 28.4 °F 53% 30.07 in 10.0 mi Calm Calm - N/A   Mostly Cloudy
4:55 AM 44.6 °F - 28.4 °F 53% 30.07 in 9.0 mi Calm Calm - N/A   Overcast
5:35 AM 42.8 °F - 26.6 °F 53% 30.08 in 9.0 mi Calm Calm - N/A   Clear
5:55 AM 42.8 °F - 26.6 °F 53% 30.09 in 5.0 mi Calm Calm - N/A   Haze
6:15 AM 41.0 °F - 26.6 °F 57% 30.10 in 0.5 mi Calm Calm - N/A   Haze
6:35 AM 41.0 °F - 26.6 °F 57% 30.10 in 0.5 mi Calm Calm - N/A   Haze
6:55 AM 41.0 °F - 26.6 °F 57% 30.11 in 10.0 mi Calm Calm - N/A   Clear
7:15 AM 41.0 °F - 26.6 °F 57% 30.11 in 8.0 mi Calm Calm - N/A   Clear
7:35 AM 42.8 °F - 26.6 °F 53% 30.11 in 9.0 mi Calm Calm - N/A   Clear
7:55 AM 44.6 °F - 28.4 °F 53% 30.11 in 6.0 mi Calm Calm - N/A   Haze
8:15 AM 46.4 °F 45.2 °F 30.2 °F 53% 30.11 in 10.0 mi NNE 3.5 mph - N/A   Clear
8:35 AM 48.2 °F - 32.0 °F 54% 30.10 in 10.0 mi Calm Calm - N/A   Clear
8:55 AM 48.2 °F - 32.0 °F 54% 30.11 in 10.0 mi Calm Calm - N/A   Clear
9:15 AM 50.0 °F - 33.8 °F 54% 30.11 in 9.0 mi Calm Calm - N/A   Clear
9:35 AM 51.8 °F - 35.6 °F 54% 30.12 in 10.0 mi Calm Calm - N/A   Clear
10:15 AM 53.6 °F - 37.4 °F 54% 30.13 in 9.0 mi Calm Calm - N/A   Clear
10:35 AM 53.6 °F - 37.4 °F 54% 30.13 in 10.0 mi Calm Calm - N/A   Clear
10:55 AM 55.4 °F - 39.2 °F 54% 30.12 in 10.0 mi Calm Calm - N/A   Clear
11:15 AM 57.2 °F - 41.0 °F 55% 30.12 in 10.0 mi Calm Calm - N/A   Clear
11:55 AM 57.2 °F - 41.0 °F 55% 30.13 in 10.0 mi WSW 3.5 mph - N/A   Clear
12:15 PM 57.2 °F - 41.0 °F 55% 30.13 in 10.0 mi Calm Calm - N/A   Clear
12:35 PM 57.2 °F - 41.0 °F 55% 30.13 in 9.0 mi Calm Calm - N/A   Light Drizzle
12:55 PM 57.2 °F - 41.0 °F 55% 30.11 in 10.0 mi Calm Calm - N/A   Light Drizzle
1:15 PM 57.2 °F - 39.2 °F 51% 30.08 in 8.0 mi ESE 3.5 mph - N/A   Light Drizzle
1:35 PM 57.2 °F - 41.0 °F 55% 30.07 in 10.0 mi Calm Calm - N/A   Clear
1:55 PM 57.2 °F - 41.0 °F 55% 30.10 in 10.0 mi West 5.8 mph - N/A   Clear
2:15 PM 57.2 °F - 41.0 °F 55% 30.07 in 10.0 mi South 5.8 mph - N/A   Clear
2:35 PM 57.2 °F - 41.0 °F 55% 30.08 in 10.0 mi West 4.6 mph - N/A   Partly Cloudy
2:55 PM 57.2 °F - 41.0 °F 55% 30.09 in 10.0 mi SW 5.8 mph - N/A   Partly Cloudy
3:15 PM 57.2 °F - 41.0 °F 55% 30.08 in 10.0 mi SSW 5.8 mph - N/A   Clear
3:35 PM 55.4 °F - 39.2 °F 54% 30.09 in 10.0 mi Variable 3.5 mph - N/A   Light Drizzle
3:55 PM 55.4 °F - 39.2 °F 54% 30.09 in 10.0 mi Calm Calm - N/A   Scattered Clouds
4:15 PM 55.4 °F - 39.2 °F 54% 30.05 in 10.0 mi SE 6.9 mph - N/A   Mostly Cloudy
4:35 PM 55.4 °F - 39.2 °F 54% 30.07 in 9.0 mi SE 4.6 mph - N/A   Light Drizzle
4:55 PM 55.4 °F - 39.2 °F 54% 30.08 in 10.0 mi Calm Calm - N/A   Mostly Cloudy
5:15 PM 55.4 °F - 39.2 °F 54% 30.08 in 10.0 mi South 5.8 mph - N/A   Overcast
5:35 PM 55.4 °F - 39.2 °F 54% 30.10 in 10.0 mi SSW 6.9 mph - N/A   Overcast
5:55 PM 55.4 °F - 39.2 °F 54% 30.08 in 10.0 mi South 5.8 mph - N/A   Overcast
6:15 PM 53.6 °F - 37.4 °F 54% 30.08 in 10.0 mi SSE 6.9 mph - N/A   Mostly Cloudy
6:35 PM 53.6 °F - 37.4 °F 54% 30.09 in 10.0 mi South 5.8 mph - N/A   Scattered Clouds
6:55 PM 53.6 °F - 37.4 °F 54% 30.08 in 10.0 mi South 4.6 mph - N/A   Scattered Clouds
7:15 PM 53.6 °F - 37.4 °F 54% 30.08 in 10.0 mi South 4.6 mph - N/A   Mostly Cloudy
7:35 PM 53.6 °F - 37.4 °F 54% 30.09 in 10.0 mi South 6.9 mph - N/A   Overcast
7:55 PM 53.6 °F - 37.4 °F 54% 30.09 in 10.0 mi South 3.5 mph - N/A   Overcast
8:15 PM 51.8 °F - 35.6 °F 54% 30.09 in 10.0 mi Calm Calm - N/A   Scattered Clouds
8:35 PM 51.8 °F - 35.6 °F 54% 30.11 in 10.0 mi Calm Calm - N/A   Mostly Cloudy
9:15 PM 51.8 °F - 35.6 °F 54% 30.11 in 10.0 mi South 4.6 mph - N/A   Overcast
9:35 PM 51.8 °F - 37.4 °F 58% 30.11 in 10.0 mi SSW 4.6 mph - N/A   Overcast
9:55 PM 53.6 °F - 37.4 °F 54% 30.11 in 10.0 mi Variable 3.5 mph - N/A   Overcast
10:15 PM 51.8 °F - 35.6 °F 54% 30.11 in 10.0 mi South 4.6 mph - N/A   Overcast
10:35 PM 51.8 °F - 35.6 °F 54% 30.11 in 10.0 mi Calm Calm - N/A   Mostly Cloudy
11:15 PM 50.0 °F - 33.8 °F 54% 30.11 in 10.0 mi Calm Calm - N/A   Partly Cloudy
11:35 PM 50.0 °F - 33.8 °F 54% 30.11 in 10.0 mi Calm Calm - N/A   Partly Cloudy
11:55 PM 50.0 °F - 33.8 °F 54% 30.11 in 9.0 mi Calm Calm - N/A   Clear